Location: Colebrook
(42.0017°N, 73.0973°W)
Time: 17:29:08
(UTC-04:00)

Amateur Radio Satellites - All Passes

Search period start: 24 August 2016 16:59
Search period end: 25 August 2016 16:59
Location: Colebrook, 42.0017°N, 73.0973°W

Satellite Date Start Highest point End Downlink Frequencies (MHz)
Time Altitude Azimuth
KKS-1 24 Aug 17:04:59 17:09:29 81° 283° (WNW) 17:13:55 437.445
YUBILEINY 24 Aug 17:09:44 17:17:47 38° 71° (ENE) 17:25:44 435.215
HORYU 2 24 Aug 17:25:46 17:30:08 55° 259° (W) 17:34:33 437.375
Cosmos 2504 24 Aug 17:47:06 17:52:13 20° 64° (ENE) 17:57:13 435.465 / 435.565
GOMX 1 24 Aug 17:50:19 17:55:00 42° 70° (ENE) 17:59:59 467.674
STARS 24 Aug 17:51:05 17:55:23 52° 287° (WNW) 17:59:38 437.465
CUBESAT XI-V 24 Aug 17:54:00 17:58:37 55° 100° (E) 18:03:14 437.345
BRITE-PL 24 Aug 17:55:38 18:00:20 83° 260° (W) 18:05:30 437.365/2234.400
Cubesat XI-IV 24 Aug 17:55:59 18:01:10 53° 71° (ENE) 18:06:22 437.490
LilacSat-2 24 Aug 18:05:30 18:09:17 58° 75° (ENE) 18:13:04 437.200
CUTE-I 24 Aug 18:08:54 18:14:12 70° 73° (ENE) 18:19:32 437.470
HO-68 24 Aug 18:14:37 18:19:26 20° 54° (NE) 18:24:14 435.675
DOVE 4 24 Aug 18:15:23 18:20:00 36° 69° (ENE) 18:24:47 437.250
NOAA 18 24 Aug 18:18:13 18:23:45 79° 74° (ENE) 18:29:19 137.9125
NOAA 15 24 Aug 18:22:10 18:27:24 70° 257° (WSW) 18:32:41 137.62
MOZHAYETS 4 24 Aug 18:23:27 18:25:02 12° 299° (WNW) 18:26:38
BEESAT 3 24 Aug 18:25:30 18:28:17 18° 43° (NE) 18:31:03 437.485
Cosmos 2491 24 Aug 18:45:22 18:54:00 71° 93° (E) 19:02:42 435.465 / 435.565
YUBILEINY 24 Aug 19:06:27 19:14:44 49° 272° (W) 19:22:57 435.215
SEEDS 24 Aug 19:18:32 19:21:35 20° 67° (ENE) 19:24:39 437.485
CINEMA 3 24 Aug 19:22:04 19:26:52 46° 72° (ENE) 19:31:38 145.822/145.860
STRAND 1 24 Aug 19:25:22 19:29:37 26° 95° (E) 19:33:50 437.568
GOMX 1 24 Aug 19:29:16 19:33:15 24° 268° (W) 19:37:27 467.674
CANX-2 24 Aug 19:31:37 19:35:37 45° 73° (ENE) 19:39:38 2200.000
CUBESAT XI-V 24 Aug 19:32:34 19:35:34 17° 296° (WNW) 19:38:34 437.345
BEESAT 2 24 Aug 19:36:56 19:40:48 43° 52° (NE) 19:44:37 435.950
Cubesat XI-IV 24 Aug 19:37:40 19:41:33 20° 268° (W) 19:45:26 437.490
CUTE 1.7 + AOD 2 24 Aug 19:38:26 19:42:27 46° 73° (ENE) 19:46:29 437.475
Cosmos 2504 24 Aug 19:39:09 19:46:26 74° 265° (W) 19:53:33 435.465 / 435.565
LilacSat-2 24 Aug 19:43:51 19:43:56 10° 270° (W) 19:44:01 437.200
CUTE-I 24 Aug 19:51:46 19:54:45 15° 270° (W) 19:57:45 437.470
DOVE 4 24 Aug 19:53:16 19:57:41 29° 266° (W) 20:02:16 437.250
HO-68 24 Aug 19:59:01 20:06:14 89° 256° (WSW) 20:13:29 435.675
AAUSAT CUBESAT 2 24 Aug 19:59:18 20:02:53 30° 70° (ENE) 20:06:30 437.432
NOAA 18 24 Aug 20:02:14 20:05:00 14° 270° (W) 20:07:47 137.9125
BEESAT 3 24 Aug 20:02:23 20:06:14 51° 242° (WSW) 20:10:04 437.485
COMPASS 1 24 Aug 20:03:27 20:07:20 42° 72° (ENE) 20:11:15 437.405
CUBEBUG 2 24 Aug 20:04:23 20:08:41 36° 71° (ENE) 20:12:55 437.445
UWE-3 24 Aug 20:09:58 20:13:52 28° 69° (ENE) 20:17:43 435.000/436.395/437.385
Oscar 11 24 Aug 20:11:33 20:14:28 18° 65° (ENE) 20:17:24 145.826/435.025
FUNcube-1 24 Aug 20:14:01 20:17:05 19° 66° (ENE) 20:20:08 145.935
PCSat 24 Aug 20:29:57 20:33:51 20° 43° (NE) 20:37:44 145.827
ZACube-1 24 Aug 20:32:30 20:36:25 30° 70° (ENE) 20:40:17 437.345
DELFI C3 24 Aug 20:35:01 20:36:35 12° 63° (ENE) 20:38:08 145.870
Cosmos 2491 24 Aug 20:44:43 20:51:39 26° 295° (WNW) 20:58:40 435.465 / 435.565
AIST 1 24 Aug 20:45:48 20:50:06 52° 79° (ENE) 20:54:24
PRISM 24 Aug 20:46:58 20:49:51 18° 93° (E) 20:52:45 437.425
SEEDS 24 Aug 20:53:16 20:57:04 34° 263° (W) 21:00:53 437.485
CINEMA 3 24 Aug 21:00:24 21:04:10 21° 268° (W) 21:07:57 145.822/145.860
STRAND 1 24 Aug 21:04:10 21:08:52 38° 291° (WNW) 21:13:33 437.568
CANX-2 24 Aug 21:09:13 21:11:43 15° 269° (W) 21:14:12 2200.000
BEESAT 2 24 Aug 21:15:37 21:18:17 17° 249° (WSW) 21:20:56 435.950
CUTE 1.7 + AOD 2 24 Aug 21:16:09 21:18:32 15° 269° (W) 21:20:56 437.475
AIST 2 24 Aug 21:18:57 21:22:29 25° 47° (NE) 21:26:00 435.215
GONETS M04 24 Aug 21:27:09 21:29:55 12° 53° (NE) 21:32:39
AAUSAT CUBESAT 2 24 Aug 21:35:12 21:38:24 22° 266° (W) 21:41:36 437.432
Cosmos 2504 24 Aug 21:36:51 21:38:19 11° 285° (WNW) 21:39:47 435.465 / 435.565
COMPASS 1 24 Aug 21:40:36 21:43:06 16° 268° (W) 21:45:36 437.405
CUBEBUG 2 24 Aug 21:41:34 21:45:20 24° 266° (W) 21:49:06 437.445
UWE-3 24 Aug 21:46:12 21:50:14 30° 264° (W) 21:54:13 435.000/436.395/437.385
Oscar 11 24 Aug 21:46:12 21:50:17 42° 262° (W) 21:54:24 145.826/435.025
FUNcube-1 24 Aug 21:48:44 21:53:01 44° 261° (W) 21:57:14 145.935
HUMSAT D 24 Aug 21:49:03 21:52:59 40° 72° (ENE) 21:56:53 437.325/437.525
HO-68 24 Aug 21:50:48 21:54:51 16° 271° (W) 21:58:55 435.675
DELFI C3 24 Aug 22:07:05 22:10:57 56° 260° (W) 22:14:50 145.870
ZACube-1 24 Aug 22:08:56 22:12:41 26° 265° (W) 22:16:24 437.345
UNISAT 6 24 Aug 22:09:22 22:11:52 15° 91° (E) 22:14:20 437.425
PCSat 24 Aug 22:12:25 22:17:52 77° 243° (WSW) 22:23:15 145.827
PRISM 24 Aug 22:21:25 22:25:18 38° 289° (WNW) 22:29:10 437.425
AIST 1 24 Aug 22:25:01 22:27:12 14° 276° (W) 22:29:23
AUBIESAT-1 24 Aug 22:28:47 22:33:16 53° 67° (ENE) 22:37:48 437.475
M-CUBED/EXP-1 PRIME 24 Aug 22:31:16 22:35:53 68° 69° (ENE) 22:40:36 437.505
ANTELSAT 24 Aug 22:45:18 22:49:18 36° 97° (E) 22:53:14 437.575/2403.000
VELOX 1 24 Aug 22:45:42 22:48:37 17° 64° (ENE) 22:51:34 145.980
Cosmos 2499 24 Aug 22:54:08 23:00:02 27° 69° (ENE) 23:05:52 435.465 / 435.565
CUBEBUG 1 24 Aug 22:55:54 22:59:30 26° 67° (ENE) 23:03:09 437.445
AIST 2 24 Aug 22:57:12 23:01:01 35° 244° (WSW) 23:04:50 435.215
ESTCUBE 1 24 Aug 23:10:18 23:14:40 55° 73° (ENE) 23:19:04 437.505/2401.250
DX 1 24 Aug 23:13:54 23:17:21 23° 66° (ENE) 23:20:49 434.975-435.025
TIGRISAT 24 Aug 23:17:03 23:21:23 80° 102° (ESE) 23:25:37 435.000
CUSAT 1 24 Aug 23:17:18 23:18:28 12° 85° (E) 23:19:43 437.405
GONETS M04 24 Aug 23:20:15 23:29:00 59° 77° (ENE) 23:37:40
QB50P1 24 Aug 23:24:34 23:26:50 14° 91° (E) 23:29:05 145.935-145.965
HUMSAT D 24 Aug 23:26:04 23:28:46 17° 268° (W) 23:31:28 437.325/437.525
SPROUT 24 Aug 23:29:26 23:32:54 24° 67° (ENE) 23:36:22 437.525
AISAT 24 Aug 23:32:35 23:36:55 55° 73° (ENE) 23:41:18 437.250
POPSAT HIP 1 24 Aug 23:33:45 23:36:37 18° 93° (E) 23:39:28 437.405
UNISAT 6 24 Aug 23:44:43 23:48:52 47° 288° (WNW) 23:52:57 437.425
50 SAT 24 Aug 23:53:59 23:57:34 87° 256° (WSW) 00:01:10 437.505
UKube-1 24 Aug 23:59:53 00:04:06 55° 73° (ENE) 00:08:21 .
QB50P2 25 Aug 00:02:24 00:06:24 39° 98° (E) 00:10:21 145.880/145.840
TISAT 1 25 Aug 00:02:31 00:04:23 13° 62° (ENE) 00:06:15 437.305
DUCHIFAT 1 25 Aug 00:04:44 00:08:35 34° 97° (E) 00:12:24 145.980
AUBIESAT-1 25 Aug 00:04:55 00:07:57 17° 263° (W) 00:11:02 437.475
POLYITAN 1 25 Aug 00:04:57 00:08:56 40° 98° (E) 00:12:53 437.675
M-CUBED/EXP-1 PRIME 25 Aug 00:08:26 00:10:47 14° 265° (W) 00:13:10 437.505
NANOSAT C BR1 25 Aug 00:16:40 00:20:48 51° 100° (E) 00:24:53 145.865
VELOX 1 25 Aug 00:20:26 00:24:42 48° 260° (W) 00:29:02 145.980
ANTELSAT 25 Aug 00:22:37 00:25:46 20° 294° (WNW) 00:28:54 437.575/2403.000
SO-50 25 Aug 00:22:58 00:27:39 49° 118° (ESE) 00:32:18 436.795
O/OREOS (USA 219) 25 Aug 00:26:23 00:30:59 68° 66° (ENE) 00:35:33 437.305
JAS-2 25 Aug 00:26:53 00:33:07 40° 98° (E) 00:39:59 435.910
CUBEBUG 1 25 Aug 00:31:48 00:35:40 30° 264° (W) 00:39:34 437.445
Cosmos 2499 25 Aug 00:46:40 00:53:29 52° 269° (W) 01:00:18 435.465 / 435.565
ESTCUBE 1 25 Aug 00:49:24 00:51:49 14° 269° (W) 00:54:14 437.505/2401.250
DX 1 25 Aug 00:49:25 00:53:21 33° 263° (W) 00:57:20 434.975-435.025
TIGRISAT 25 Aug 00:56:49 00:57:23 10° 300° (WNW) 00:57:57 435.000
CUSAT 1 25 Aug 00:58:01 01:00:09 19° 291° (WNW) 01:02:36 437.405
QB50P1 25 Aug 00:58:48 01:02:53 49° 288° (WNW) 01:06:57 145.935-145.965
SPROUT 25 Aug 01:04:51 01:08:41 31° 264° (W) 01:12:33 437.525
POPSAT HIP 1 25 Aug 01:08:36 01:12:34 39° 289° (WNW) 01:16:28 437.405
RS-15 25 Aug 01:11:00 01:21:18 41° 107° (ESE) 01:32:05 29.354- 29.394
SWISSCUBE 25 Aug 01:11:15 01:14:18 17° 63° (ENE) 01:17:21 437.505
AISAT 25 Aug 01:11:21 01:13:43 14° 269° (W) 01:16:09 437.250
BUGSAT 1 25 Aug 01:13:31 01:17:43 89° 123° (ESE) 01:21:48 437.445
GONETS M04 25 Aug 01:17:51 01:25:16 31° 277° (W) 01:32:40
Oscar 19 25 Aug 01:22:21 01:26:14 21° 93° (E) 01:30:04 437.125/150
DANDE 25 Aug 01:23:33 01:25:54 30° 285° (WNW) 01:28:20 436.750
BEESAT 25 Aug 01:28:03 01:31:42 22° 65° (ENE) 01:35:21 436.000
TISAT 1 25 Aug 01:35:17 01:39:30 64° 259° (WSW) 01:43:45 437.305
UKube-1 25 Aug 01:38:21 01:40:29 13° 269° (W) 01:42:37 .
QB50P2 25 Aug 01:38:58 01:41:55 19° 295° (WNW) 01:44:50 145.880/145.840
DUCHIFAT 1 25 Aug 01:40:55 01:44:03 21° 294° (WNW) 01:47:10 145.980
POLYITAN 1 25 Aug 01:41:32 01:44:26 18° 295° (WNW) 01:47:20 437.675
NANOSAT C BR1 25 Aug 01:53:43 01:56:06 15° 297° (WNW) 01:58:28 145.865
SO-50 25 Aug 02:04:20 02:08:22 25° 316° (NW) 02:12:21 436.795
Gurwin Techsat 1B 25 Aug 02:06:25 02:10:45 25° 94° (E) 02:15:03 435.225
O/OREOS (USA 219) 25 Aug 02:07:59 02:09:45 12° 263° (W) 02:11:32 437.305
JAS-2 25 Aug 02:12:02 02:18:06 40° 292° (WNW) 02:24:48 435.910
ITUPSAT 1 25 Aug 02:12:04 02:16:44 58° 72° (ENE) 02:21:25 437.325
KKS-1 25 Aug 02:30:35 02:31:36 11° 59° (ENE) 02:32:37 437.445
ITAMSAT 1 25 Aug 02:31:07 02:32:54 12° 89° (E) 02:34:41 435.822/435.867
PHONESAT 2.4 25 Aug 02:33:24 02:34:20 11° 149° (SSE) 02:35:15 2401.200-2431.200
SWISSCUBE 25 Aug 02:46:59 02:51:39 56° 260° (W) 02:56:20 437.505
Oscar 19 25 Aug 03:00:47 03:05:48 49° 290° (WNW) 03:10:47 437.125/150
BEESAT 25 Aug 03:04:44 03:09:13 41° 261° (W) 03:13:43 436.000
STARS 25 Aug 03:13:35 03:16:07 15° 62° (ENE) 03:18:38 437.465
RS-15 25 Aug 03:21:41 03:33:10 64° 310° (NW) 03:45:21 29.354- 29.394
Gurwin Techsat 1B 25 Aug 03:45:50 03:50:50 42° 291° (WNW) 03:55:48 435.225
MOZHAYETS 4 25 Aug 03:45:53 03:50:26 77° 75° (ENE) 03:54:59
ITUPSAT 1 25 Aug 03:52:11 03:54:55 15° 269° (W) 03:57:41 437.325
KKS-1 25 Aug 04:02:58 04:07:28 85° 260° (W) 04:11:59 437.445
PHONESAT 2.4 25 Aug 04:07:21 04:10:11 38° 164° (SSE) 04:13:01 2401.200-2431.200
ITAMSAT 1 25 Aug 04:07:47 04:12:59 83° 286° (WNW) 04:18:10 435.822/435.867
AO-7 25 Aug 04:08:48 04:16:44 46° 101° (E) 04:24:36 29.400- 29.500
STARS 25 Aug 04:47:37 04:51:59 57° 259° (W) 04:56:23 437.465
Cosmos 2491 25 Aug 04:55:28 05:03:27 36° 71° (ENE) 05:11:23 435.465 / 435.565
CUBESAT XI-V 25 Aug 04:57:29 05:01:57 54° 73° (ENE) 05:06:28 437.345
HORYU 2 25 Aug 05:16:37 05:20:19 26° 96° (E) 05:23:59 437.375
MOZHAYETS 4 25 Aug 05:27:29 05:28:07 10° 272° (W) 05:28:45
RS-15 25 Aug 05:38:57 05:48:47 28° 341° (NNW) 05:58:55 29.354- 29.394
PHONESAT 2.4 25 Aug 05:43:25 05:46:24 66° 180° (S) 05:49:22 2401.200-2431.200
ITAMSAT 1 25 Aug 05:49:58 05:51:38 11° 303° (WNW) 05:53:17 435.822/435.867
GOMX 1 25 Aug 05:53:21 05:56:10 14° 87° (E) 05:58:54 467.674
BRITE-PL 25 Aug 05:59:44 06:04:59 36° 96° (E) 06:10:08 437.365/2234.400
AO-85 25 Aug 06:00:49 06:05:55 48° 117° (ESE) 06:10:47 145.980
AO-7 25 Aug 06:01:45 06:09:24 42° 299° (WNW) 06:16:59 29.400- 29.500
YUBILEINY 25 Aug 06:11:04 06:19:11 43° 87° (E) 06:27:18 435.215
Cubesat XI-IV 25 Aug 06:13:38 06:17:30 20° 92° (E) 06:21:21 437.490
CUTE-I 25 Aug 06:26:05 06:30:30 26° 95° (E) 06:34:55 437.470
Cosmos 2504 25 Aug 06:27:13 06:32:22 18° 79° (E) 06:37:21 435.465 / 435.565
NOAA 15 25 Aug 06:36:57 06:42:00 42° 99° (E) 06:47:01 137.62
CUBESAT XI-V 25 Aug 06:37:03 06:39:41 15° 269° (W) 06:42:20 437.345
NOAA 18 25 Aug 06:40:19 06:45:10 31° 97° (E) 06:49:58 137.9125
STRAND 1 25 Aug 06:41:27 06:46:10 39° 69° (ENE) 06:50:53 437.568
Cosmos 2491 25 Aug 06:52:07 07:00:32 52° 271° (W) 07:08:57 435.465 / 435.565
HORYU 2 25 Aug 06:53:00 06:56:50 30° 292° (WNW) 07:00:39 437.375
LilacSat-2 25 Aug 07:12:33 07:16:21 85° 102° (ESE) 07:20:07 437.200
PHONESAT 2.4 25 Aug 07:19:47 07:22:35 36° 197° (SSW) 07:25:23 2401.200-2431.200
HO-68 25 Aug 07:28:12 07:32:31 17° 89° (E) 07:36:49 435.675
GOMX 1 25 Aug 07:29:21 07:34:51 76° 285° (WNW) 07:40:05 467.674
PRISM 25 Aug 07:37:35 07:39:48 14° 63° (ENE) 07:42:04 437.425
BRITE-PL 25 Aug 07:38:15 07:43:20 34° 292° (WNW) 07:48:20 437.365/2234.400
AO-85 25 Aug 07:42:05 07:46:35 28° 314° (NW) 07:50:52 145.980
DOVE 4 25 Aug 07:51:13 07:56:24 84° 101° (E) 08:01:16 437.250
Cubesat XI-IV 25 Aug 07:52:43 07:57:52 52° 289° (WNW) 08:03:00 437.490
RS-15 25 Aug 07:56:56 08:06:49 27° 16° (NNE) 08:16:46 29.354- 29.394
CUTE-I 25 Aug 08:05:43 08:10:39 40° 291° (WNW) 08:15:34 437.470
YUBILEINY 25 Aug 08:07:38 08:15:55 44° 287° (WNW) 08:24:16 435.215
Cosmos 2504 25 Aug 08:16:09 08:24:45 89° 279° (W) 08:32:47 435.465 / 435.565
NOAA 15 25 Aug 08:17:12 08:21:32 26° 296° (WNW) 08:25:52 137.62
NOAA 18 25 Aug 08:20:52 08:25:49 36° 294° (WNW) 08:30:44 137.9125
STRAND 1 25 Aug 08:21:15 08:25:26 25° 265° (W) 08:29:38 437.568
SEEDS 25 Aug 08:36:21 08:40:12 35° 97° (E) 08:44:04 437.485
CANX-2 25 Aug 08:51:35 08:55:51 88° 107° (ESE) 09:00:05 2200.000
CINEMA 3 25 Aug 08:53:38 08:58:16 79° 284° (WNW) 09:02:39 145.822/145.860
SO-50 25 Aug 08:54:08 08:58:37 47° 51° (NE) 09:02:58 436.795
CUTE 1.7 + AOD 2 25 Aug 08:58:18 09:02:32 90° 314° (NW) 09:06:47 437.475
UNISAT 6 25 Aug 09:08:35 09:11:28 17° 64° (ENE) 09:14:18 437.425
GOMX 1 25 Aug 09:10:14 09:11:55 11° 303° (WNW) 09:13:35 467.674
PRISM 25 Aug 09:10:44 09:14:41 50° 260° (W) 09:18:43 437.425
HO-68 25 Aug 09:13:52 09:21:05 87° 286° (WNW) 09:28:15 435.675
AIST 1 25 Aug 09:15:39 09:19:24 30° 90° (E) 09:23:13
AAUSAT CUBESAT 2 25 Aug 09:15:48 09:19:53 53° 100° (E) 09:23:58 437.432
COMPASS 1 25 Aug 09:20:52 09:25:04 79° 104° (ESE) 09:29:14 437.405
ISS 25 Aug 09:29:14 09:32:07 29° 136° (SE) 09:35:00 145.825
DOVE 4 25 Aug 09:30:57 09:33:16 13° 301° (WNW) 09:35:34 437.250
CUBEBUG 2 25 Aug 09:31:08 09:35:26 74° 102° (ESE) 09:39:34 437.445
Oscar 11 25 Aug 09:32:54 09:36:48 32° 97° (E) 09:40:39 145.826/435.025
UWE-3 25 Aug 09:34:58 09:39:05 52° 99° (E) 09:43:08 435.000/436.395/437.385
FUNcube-1 25 Aug 09:36:29 09:40:13 31° 96° (E) 09:43:54 145.935
ANTELSAT 25 Aug 09:44:05 09:48:19 36° 70° (ENE) 09:52:28 437.575/2403.000
CUSAT 1 25 Aug 09:44:48 09:49:49 26° 72° (ENE) 09:55:39 437.405
DELFI C3 25 Aug 09:44:59 09:47:41 17° 93° (E) 09:50:23 145.870
BEESAT 3 25 Aug 09:53:41 09:56:44 22° 113° (ESE) 09:59:48 437.485
ZACube-1 25 Aug 09:56:04 10:00:11 57° 100° (E) 10:04:15 437.345
RS-15 25 Aug 10:10:40 10:22:51 58° 47° (NE) 10:34:51 29.354- 29.394
SEEDS 25 Aug 10:12:35 10:15:41 20° 293° (WNW) 10:18:47 437.485
Cosmos 2504 25 Aug 10:13:40 10:19:09 19° 296° (WNW) 10:24:27 435.465 / 435.565
TIGRISAT 25 Aug 10:15:24 10:20:01 73° 76° (ENE) 10:24:34 435.000
DANDE 25 Aug 10:15:27 10:18:26 15° 71° (ENE) 10:21:47 436.750
QB50P1 25 Aug 10:18:13 10:20:01 12° 62° (ENE) 10:21:50 145.935-145.965
POPSAT HIP 1 25 Aug 10:27:10 10:29:40 15° 64° (ENE) 10:32:10 437.405
GONETS M04 25 Aug 10:32:32 10:34:58 11° 72° (ENE) 10:37:24
SO-50 25 Aug 10:35:25 10:38:44 20° 249° (WSW) 10:41:59 436.795
UNISAT 6 25 Aug 10:43:13 10:47:45 54° 260° (W) 10:52:14 437.425
JAS-2 25 Aug 10:43:28 10:46:05 14° 57° (ENE) 10:48:46 435.910
AAUSAT CUBESAT 2 25 Aug 10:52:45 10:54:56 14° 296° (WNW) 10:57:04 437.432
AIST 1 25 Aug 10:53:32 10:57:01 23° 287° (WNW) 11:00:31
QB50P2 25 Aug 10:55:18 10:59:06 32° 69° (ENE) 11:02:54 145.880/145.840
DUCHIFAT 1 25 Aug 10:56:57 11:00:34 28° 68° (ENE) 11:04:12 145.980
POLYITAN 1 25 Aug 10:57:48 11:01:37 32° 70° (ENE) 11:05:27 437.675
HO-68 25 Aug 11:03:14 11:07:49 19° 306° (NW) 11:12:23 435.675
ESTCUBE 1 25 Aug 11:04:41 11:06:05 11° 89° (E) 11:07:28 437.505/2401.250
ISS 25 Aug 11:05:24 11:08:30 38° 333° (NNW) 11:11:37 145.825
BEESAT 2 25 Aug 11:06:17 11:10:12 72° 120° (ESE) 11:14:10 435.950
HUMSAT D 25 Aug 11:07:09 11:11:14 74° 101° (E) 11:15:19 437.325/437.525
NANOSAT C BR1 25 Aug 11:08:56 11:12:54 39° 71° (ENE) 11:16:54 145.865
Oscar 11 25 Aug 11:09:21 11:12:45 23° 293° (WNW) 11:16:09 145.826/435.025
CUBEBUG 2 25 Aug 11:10:21 11:11:23 11° 299° (WNW) 11:12:25 437.445
UWE-3 25 Aug 11:12:52 11:15:06 14° 297° (WNW) 11:17:18 435.000/436.395/437.385
FUNcube-1 25 Aug 11:13:07 11:16:17 21° 293° (WNW) 11:19:26 145.935
PCSat 25 Aug 11:14:47 11:16:53 12° 102° (ESE) 11:19:00 145.827
DELFI C3 25 Aug 11:18:58 11:22:39 36° 289° (WNW) 11:26:18 145.870
ANTELSAT 25 Aug 11:21:25 11:25:04 23° 266° (W) 11:28:41 437.575/2403.000
CUSAT 1 25 Aug 11:25:56 11:31:58 60° 264° (W) 11:39:20 437.405
BEESAT 3 25 Aug 11:30:39 11:34:13 33° 310° (NW) 11:37:50 437.485
Cosmos 2499 25 Aug 11:31:51 11:37:57 24° 83° (E) 11:43:44 435.465 / 435.565
ZACube-1 25 Aug 11:34:05 11:35:59 13° 297° (WNW) 11:37:52 437.345
AUBIESAT-1 25 Aug 11:42:19 11:46:04 32° 101° (E) 11:49:32 437.475
M-CUBED/EXP-1 PRIME 25 Aug 11:45:21 11:49:26 44° 103° (ESE) 11:53:10 437.505
QB50P1 25 Aug 11:51:00 11:55:15 65° 259° (W) 11:59:31 145.935-145.965
TIGRISAT 25 Aug 11:55:43 11:57:09 11° 271° (W) 11:58:35 435.000
DANDE 25 Aug 11:56:12 12:01:16 77° 262° (W) 12:08:01 436.750
POPSAT HIP 1 25 Aug 12:00:51 12:05:01 51° 260° (W) 12:09:13 437.405
BUGSAT 1 25 Aug 12:03:01 12:07:13 64° 74° (ENE) 12:11:27 437.445
VELOX 1 25 Aug 12:10:12 12:14:09 30° 96° (E) 12:18:04 145.980
CUBEBUG 1 25 Aug 12:19:20 12:23:37 47° 99° (E) 12:27:53 437.445
GONETS M04 25 Aug 12:21:18 12:29:54 66° 92° (E) 12:38:36
RS-15 25 Aug 12:23:40 12:35:13 49° 250° (WSW) 12:46:33 29.354- 29.394
JAS-2 25 Aug 12:25:14 12:30:24 78° 257° (WSW) 12:35:51 435.910
QB50P2 25 Aug 12:31:32 12:34:55 23° 266° (W) 12:38:19 145.880/145.840
DUCHIFAT 1 25 Aug 12:32:38 12:36:12 26° 265° (W) 12:39:47 145.980
POLYITAN 1 25 Aug 12:34:05 12:37:27 22° 266° (W) 12:40:51 437.675
DX 1 25 Aug 12:36:44 12:40:53 39° 99° (E) 12:44:58 434.975-435.025
ESTCUBE 1 25 Aug 12:38:50 12:43:21 71° 285° (WNW) 12:47:52 437.505/2401.250
Oscar 19 25 Aug 12:39:21 12:43:52 32° 67° (ENE) 12:48:25 437.125/150
ISS 25 Aug 12:43:30 12:45:39 16° 353° (N) 12:47:49 145.825
NANOSAT C BR1 25 Aug 12:45:50 12:48:47 18° 267° (W) 12:51:44 145.865
BEESAT 2 25 Aug 12:46:17 12:48:30 14° 320° (NW) 12:50:44 435.950
SPROUT 25 Aug 12:49:53 12:53:57 41° 98° (E) 12:57:59 437.525
PCSat 25 Aug 12:54:03 12:59:28 88° 302° (WNW) 13:04:56 145.827
AIST 2 25 Aug 12:54:36 12:58:26 41° 117° (ESE) 13:02:20 435.215
50 SAT 25 Aug 12:55:11 12:58:49 74° 284° (WNW) 13:02:27 437.505
AISAT 25 Aug 12:58:32 13:03:01 77° 285° (WNW) 13:07:27 437.250
AUBIESAT-1 25 Aug 13:17:07 13:20:18 21° 300° (WNW) 13:23:19 437.475
TISAT 1 25 Aug 13:19:39 13:22:38 19° 93° (E) 13:25:36 437.305
AO-7 25 Aug 13:20:20 13:24:51 16° 46° (NE) 13:29:21 29.400- 29.500
M-CUBED/EXP-1 PRIME 25 Aug 13:20:44 13:23:32 17° 302° (WNW) 13:26:13 437.505
Cosmos 2499 25 Aug 13:22:11 13:30:25 69° 280° (W) 13:38:04 435.465 / 435.565
UKube-1 25 Aug 13:22:18 13:26:40 84° 285° (WNW) 13:31:00 .
Gurwin Techsat 1B 25 Aug 13:27:39 13:32:36 41° 69° (ENE) 13:37:34 435.225
BUGSAT 1 25 Aug 13:41:41 13:42:59 11° 270° (W) 13:44:18 437.445
VELOX 1 25 Aug 13:46:47 13:50:30 26° 293° (WNW) 13:54:12 145.980
ITAMSAT 1 25 Aug 13:48:30 13:52:18 21° 63° (ENE) 13:56:06 435.822/435.867
CUBEBUG 1 25 Aug 13:56:36 13:59:32 18° 296° (WNW) 14:02:28 437.445
DX 1 25 Aug 14:13:33 14:16:48 20° 295° (WNW) 14:20:01 434.975-435.025
ITUPSAT 1 25 Aug 14:13:39 14:16:11 14° 91° (E) 14:18:43 437.325
Oscar 19 25 Aug 14:18:32 14:23:07 32° 264° (W) 14:27:45 437.125/150
GONETS M04 25 Aug 14:20:10 14:27:24 28° 293° (WNW) 14:34:45
ISS 25 Aug 14:20:37 14:23:03 19° 13° (NNE) 14:25:29 145.825
SPROUT 25 Aug 14:26:38 14:29:34 18° 295° (WNW) 14:32:31 437.525
AO-85 25 Aug 14:32:47 14:36:52 39° 50° (NE) 14:40:39 145.980
AIST 2 25 Aug 14:33:49 14:37:05 22° 315° (NW) 14:40:22 435.215
O/OREOS (USA 219) 25 Aug 14:38:51 14:43:19 74° 110° (ESE) 14:47:51 437.305
PCSat 25 Aug 14:40:11 14:43:39 17° 319° (NW) 14:47:09 145.827
SWISSCUBE 25 Aug 14:46:46 14:51:08 35° 97° (E) 14:55:28 437.505
TISAT 1 25 Aug 14:54:31 14:58:25 37° 290° (WNW) 15:02:16 437.305
BEESAT 25 Aug 15:04:03 15:08:40 47° 100° (E) 15:13:14 436.000
AO-7 25 Aug 15:07:49 15:16:03 65° 67° (ENE) 15:24:17 29.400- 29.500
Gurwin Techsat 1B 25 Aug 15:08:18 15:12:40 26° 266° (W) 15:17:04 435.225
Cosmos 2499 25 Aug 15:21:44 15:24:56 13° 300° (WNW) 15:28:05 435.465 / 435.565
ITAMSAT 1 25 Aug 15:26:20 15:31:23 52° 260° (W) 15:36:27 435.822/435.867
MOZHAYETS 4 25 Aug 15:41:29 15:44:32 17° 92° (E) 15:47:33
ITUPSAT 1 25 Aug 15:49:43 15:54:26 62° 287° (WNW) 15:59:07 437.325
KKS-1 25 Aug 15:54:34 15:57:36 18° 93° (E) 16:00:36 437.445
ISS 25 Aug 15:56:43 16:00:00 65° 32° (NNE) 16:03:15 145.825
AO-85 25 Aug 16:13:57 16:16:58 19° 250° (WSW) 16:19:50 145.980
HORYU 2 25 Aug 16:14:59 16:18:42 26° 67° (ENE) 16:22:25 437.375
O/OREOS (USA 219) 25 Aug 16:21:04 16:23:17 13° 309° (NW) 16:25:32 437.305
YUBILEINY 25 Aug 16:21:07 16:27:28 21° 62° (ENE) 16:33:45 435.215
SWISSCUBE 25 Aug 16:24:52 16:28:46 26° 294° (WNW) 16:32:39 437.505
STARS 25 Aug 16:37:04 16:40:40 24° 95° (E) 16:44:14 437.465
BEESAT 25 Aug 16:42:42 16:46:06 20° 296° (WNW) 16:49:30 436.000
